• In Uzbekistan
  • List of Countries
  • For 7 days
  • Water Temperature
  • Satellite Maps
  • Weather Map
  • Weather Widgets
  • user-avatar
    Login

    Hourly Weather Bad Klosterlausnitz

    Today, 21 October, Sunday

    Time Temperature Precipitation Wind Pressure Humidity
    00:00 +8°C° 0 mm 1 mps 742 mmHg 85%
    01:00 +8°C° 0 mm 1 mps 742 mmHg 84%
    02:00 +8°C° 0 mm 1 mps 742 mmHg 86%
    03:00 +7°C° 0 mm 1 mps 742 mmHg 87%
    04:00 +7°C° 0 mm 1 mps 742 mmHg 89%
    05:00 +7°C° 0 mm 1 mps 742 mmHg 90%
    06:00 +7°C° 0 mm 1 mps 742 mmHg 91%
    07:00 +6°C° 0 mm 1 mps 742 mmHg 93%
    08:00 +8°C° 0 mm 1 mps 742 mmHg 88%
    09:00 +9°C° 0 mm 1 mps 742 mmHg 84%
    10:00 +11°C° 0 mm 1 mps 743 mmHg 79%
    11:00 +11°C° 0 mm 1 mps 742 mmHg 75%
    12:00 +12°C° 0 mm 1 mps 742 mmHg 71%
    13:00 +13°C° 0 mm 1 mps 742 mmHg 67%
    14:00 +13°C° 0 mm 1 mps 742 mmHg 67%
    15:00 +12°C° 0 mm 1 mps 741 mmHg 67%
    16:00 +12°C° 0 mm 1 mps 741 mmHg 67%
    17:00 +11°C° 0 mm 1 mps 741 mmHg 73%
    18:00 +9°C° 0 mm 1 mps 741 mmHg 80%
    19:00 +8°C° 0 mm 1 mps 741 mmHg 87%
    20:00 +7°C° 0 mm 1 mps 741 mmHg 87%
    21:00 +7°C° 0 mm 1 mps 741 mmHg 88%
    22:00 +7°C° 0 mm 1 mps 741 mmHg 89%
    23:00 +6°C° 0 mm 1 mps 741 mmHg 88%

    Tomorrow, 22 October, Monday

    Time Temperature Precipitation Wind Pressure Humidity
    00:00 +5°C° 0 mm 2 mps 741 mmHg 88%
    01:00 +5°C° 0 mm 2 mps 741 mmHg 88%
    02:00 +5°C° 0 mm 2 mps 741 mmHg 88%
    03:00 +5°C° 0 mm 2 mps 741 mmHg 88%
    04:00 +5°C° 0 mm 2 mps 740 mmHg 88%
    05:00 +5°C° 0 mm 2 mps 741 mmHg 88%
    06:00 +5°C° 0 mm 2 mps 741 mmHg 88%
    07:00 +4°C° 0 mm 2 mps 741 mmHg 88%
    08:00 +7°C° 0 mm 2 mps 741 mmHg 81%
    09:00 +9°C° 0 mm 2 mps 741 mmHg 74%
    10:00 +12°C° 0 mm 2 mps 741 mmHg 67%
    11:00 +12°C° 0.1 mm 2 mps 741 mmHg 70%
    12:00 +11°C° 0.1 mm 3 mps 741 mmHg 73%
    13:00 +11°C° 0.1 mm 3 mps 741 mmHg 76%
    14:00 +10°C° 0.3 mm 3 mps 741 mmHg 82%
    15:00 +9°C° 0.3 mm 3 mps 741 mmHg 87%
    16:00 +8°C° 0.3 mm 4 mps 741 mmHg 92%
    17:00 +7°C° 0.2 mm 4 mps 742 mmHg 91%
    18:00 +8°C° 0.2 mm 3 mps 742 mmHg 91%
    19:00 +7°C° 0.2 mm 3 mps 743 mmHg 90%
    20:00 +5°C° 0 mm 3 mps 743 mmHg 91%
    21:00 +5°C° 0 mm 2 mps 743 mmHg 91%
    22:00 +5°C° 0 mm 2 mps 744 mmHg 92%
    23:00 +4°C° 0 mm 2 mps 744 mmHg 92%

    Day after tomorrow, 23 October, Tuesday

    Time Temperature Precipitation Wind Pressure Humidity
    00:00 +4°C° 0 mm 2 mps 744 mmHg 92%
    01:00 +4°C° 0 mm 2 mps 744 mmHg 92%
    02:00 +3°C° 0 mm 2 mps 743 mmHg 92%
    03:00 +3°C° 0 mm 2 mps 743 mmHg 93%
    04:00 +3°C° 0 mm 2 mps 743 mmHg 93%
    05:00 +3°C° 0 mm 2 mps 742 mmHg 93%
    06:00 +2°C° 0 mm 3 mps 742 mmHg 92%
    07:00 +2°C° 0 mm 3 mps 742 mmHg 91%
    08:00 +3°C° 0 mm 4 mps 741 mmHg 85%
    09:00 +5°C° 0 mm 5 mps 741 mmHg 79%
    10:00 +5°C° 0 mm 6 mps 741 mmHg 73%
    11:00 +6°C° 0 mm 7 mps 740 mmHg 72%
    12:00 +6°C° 0 mm 7 mps 739 mmHg 71%
    13:00 +7°C° 0 mm 8 mps 738 mmHg 70%
    14:00 +7°C° 0.1 mm 8 mps 737 mmHg 71%
    15:00 +7°C° 0.1 mm 8 mps 736 mmHg 72%
    16:00 +7°C° 0.1 mm 8 mps 736 mmHg 73%
    17:00 +7°C° 0.3 mm 8 mps 735 mmHg 76%
    18:00 +7°C° 0.3 mm 9 mps 735 mmHg 79%
    19:00 +7°C° 0.3 mm 9 mps 734 mmHg 82%
    20:00 +8°C° 0.2 mm 9 mps 734 mmHg 83%
    21:00 +8°C° 0.2 mm 9 mps 734 mmHg 83%
    22:00 +8°C° 0.2 mm 9 mps 734 mmHg 84%
    23:00 +10°C° 0.4 mm 9 mps 733 mmHg 85%

    24 October, Wednesday

    Time Temperature Precipitation Wind Pressure Humidity
    00:00 +10°C° 0.4 mm 9 mps 733 mmHg 86%
    01:00 +10°C° 0.4 mm 9 mps 733 mmHg 86%
    02:00 +10°C° 0.5 mm 8 mps 733 mmHg 86%
    03:00 +10°C° 0.5 mm 8 mps 733 mmHg 86%
    04:00 +10°C° 0.5 mm 8 mps 733 mmHg 87%
    05:00 +10°C° 0.6 mm 7 mps 733 mmHg 87%
    06:00 +10°C° 0.6 mm 6 mps 733 mmHg 88%
    07:00 +9°C° 0.6 mm 6 mps 733 mmHg 89%
    08:00 +9°C° 0.7 mm 6 mps 733 mmHg 89%
    09:00 +9°C° 0.7 mm 5 mps 733 mmHg 89%
    10:00 +9°C° 0.7 mm 5 mps 734 mmHg 89%
    11:00 +9°C° 0.4 mm 5 mps 734 mmHg 88%
    12:00 +9°C° 0.4 mm 5 mps 734 mmHg 87%
    13:00 +9°C° 0.4 mm 5 mps 734 mmHg 86%
    14:00 +9°C° 0.1 mm 5 mps 734 mmHg 83%
    15:00 +9°C° 0.1 mm 5 mps 735 mmHg 81%
    16:00 +9°C° 0.1 mm 5 mps 735 mmHg 78%
    17:00 +8°C° 0 mm 5 mps 735 mmHg 81%
    18:00 +8°C° 0 mm 4 mps 736 mmHg 83%
    19:00 +7°C° 0 mm 4 mps 736 mmHg 86%
    20:00 +6°C° 0 mm 4 mps 737 mmHg 88%
    21:00 +6°C° 0 mm 4 mps 737 mmHg 90%
    22:00 +5°C° 0 mm 4 mps 737 mmHg 92%
    23:00 +5°C° 0 mm 4 mps 737 mmHg 92%

    25 October, Thursday

    Time Temperature Precipitation Wind Pressure Humidity
    00:00 +5°C° 0 mm 3 mps 737 mmHg 93%
    01:00 +5°C° 0 mm 3 mps 737 mmHg 94%
    02:00 +5°C° 0 mm 3 mps 737 mmHg 95%
    03:00 +7°C° 0 mm 3 mps 737 mmHg 95%
    04:00 +7°C° 0 mm 3 mps 737 mmHg 95%
    05:00 +7°C° 0.1 mm 4 mps 736 mmHg 94%
    06:00 +8°C° 0.1 mm 4 mps 736 mmHg 93%
    07:00 +8°C° 0.1 mm 4 mps 736 mmHg 92%
    08:00 +9°C° 0.1 mm 5 mps 736 mmHg 90%
    09:00 +10°C° 0.1 mm 5 mps 736 mmHg 88%
    10:00 +10°C° 0.1 mm 6 mps 735 mmHg 86%
    11:00 +11°C° 0.1 mm 6 mps 735 mmHg 85%
    12:00 +11°C° 0.1 mm 6 mps 735 mmHg 83%
    13:00 +11°C° 0.1 mm 6 mps 734 mmHg 82%
    14:00 +11°C° 0.1 mm 6 mps 734 mmHg 82%
    15:00 +12°C° 0.1 mm 5 mps 733 mmHg 81%
    16:00 +12°C° 0.1 mm 5 mps 733 mmHg 81%
    17:00 +12°C° 0.1 mm 5 mps 733 mmHg 82%
    18:00 +11°C° 0.1 mm 4 mps 733 mmHg 84%
    19:00 +10°C° 0.1 mm 4 mps 733 mmHg 85%
    20:00 +10°C° 0 mm 4 mps 733 mmHg 86%
    21:00 +8°C° 0 mm 4 mps 733 mmHg 86%
    22:00 +9°C° 0 mm 3 mps 733 mmHg 87%
    23:00 +8°C° 0 mm 3 mps 733 mmHg 88%

    26 October, Friday

    Time Temperature Precipitation Wind Pressure Humidity
    00:00 +7°C° 0 mm 3 mps 732 mmHg 89%
    01:00 +7°C° 0 mm 3 mps 732 mmHg 90%
    02:00 +5°C° 0 mm 3 mps 732 mmHg 92%
    03:00 +5°C° 0 mm 3 mps 731 mmHg 93%
    04:00 +5°C° 0 mm 3 mps 731 mmHg 95%
    05:00 +4°C° 0 mm 3 mps 731 mmHg 95%
    06:00 +4°C° 0 mm 3 mps 730 mmHg 95%
    07:00 +4°C° 0 mm 3 mps 730 mmHg 94%
    08:00 +5°C° 0 mm 3 mps 730 mmHg 89%
    09:00 +6°C° 0 mm 4 mps 730 mmHg 83%
    10:00 +7°C° 0 mm 4 mps 729 mmHg 78%
    11:00 +8°C° 0 mm 4 mps 729 mmHg 77%
    12:00 +8°C° 0 mm 4 mps 729 mmHg 76%
    13:00 +8°C° 0 mm 4 mps 728 mmHg 74%
    14:00 +8°C° 0.1 mm 4 mps 728 mmHg 77%
    15:00 +8°C° 0.1 mm 4 mps 727 mmHg 79%
    16:00 +7°C° 0.1 mm 4 mps 726 mmHg 81%
    17:00 +7°C° 0.3 mm 4 mps 726 mmHg 84%
    18:00 +7°C° 0.3 mm 4 mps 726 mmHg 86%
    19:00 +6°C° 0.3 mm 4 mps 725 mmHg 88%
    20:00 +6°C° 0.2 mm 4 mps 725 mmHg 87%
    21:00 +6°C° 0.2 mm 4 mps 725 mmHg 87%
    22:00 +6°C° 0.2 mm 4 mps 724 mmHg 86%
    23:00 +6°C° 0.1 mm 4 mps 724 mmHg 86%
    Show more